Weather History for St. Augustine, FL

Change the Weather History Date:

Friday, May 3, 2013

  Actual Average Record
Temperature  
Mean Temperature 68 °F -  
Max Temperature 70 °F 77 °F 93 °F (2002)
Min Temperature 66 °F 61 °F 51 °F (1988)
Cooling Degree Days 3    
Growing Degree Days 18 (Base 50)    
Moisture  
Dew Point 66 °F    
Average Humidity 92    
Maximum Humidity 100    
Minimum Humidity 78    
Precipitation  
Precipitation 3.66 in - - ()
Sea Level Pressure  
Sea Level Pressure 29.86 in    
Wind  
Wind Speed 29 mph (East)    
Max Wind Speed 36 mph    
Max Gust Speed 46 mph    
Visibility 4 miles    
Events Rain    
Averages and records for this station are not official NWS values.
T = Trace of Precipitation, MM = Missing Value Source: NWS Daily Summary

Daily Weather History Graph

Daily Weather History Graph

Search for Another Location

Airport:

Trip Planner

Search our weather history database for the weather conditions in past years. The results will help you decide how hot, cold, wet, or windy it might be!

Date:

Astronomy

May. 03, 2013 Rise Set
Actual Time 6:40 AM EDT 8:04 PM EDT
Civil Twilight 6:15 AM EDT 8:29 PM EDT
Nautical Twilight 5:44 AM EDT 9:00 PM EDT
Astronomical Twilight 5:13 AM EDT 9:31 PM EDT
Moon 2:36 AM EDT (5/3) 2:22 PM EDT (5/3)
Length of Visible Light 14h 14m
Length of Day
13h 23m
Last Quarter, 37% of the Moon is Illuminated
May 3
Last Quarter
May 9
New
May 18
First Quarter
May 25
Full
May 31
Last Quarter

Hourly Weather History & Observations

Time (EDT) Temp. Dew Point Humidity Pressure Visibility Wind Dir Wind Speed Gust Speed Precip Events Conditions
12:12 AM 66.2 °F 66.2 °F 100% 29.91 in 2.5 mi East 29.9 mph 39.1 mph 0.05 in Rain Rain
12:14 AM 66.2 °F 66.2 °F 100% 29.91 in 3.0 mi East 32.2 mph 39.1 mph 0.06 in Rain Rain
12:27 AM 66.2 °F 66.2 °F 100% 29.90 in 3.0 mi East 32.2 mph 42.6 mph 0.11 in Rain Light Rain
12:34 AM 66.2 °F 66.2 °F 100% 29.90 in 2.5 mi East 32.2 mph 42.6 mph 0.14 in Rain Rain
12:50 AM 68.0 °F 66.2 °F 94% 29.89 in 3.0 mi East 32.2 mph 39.1 mph 0.23 in Rain Rain
12:56 AM 66.2 °F 66.2 °F 100% 29.89 in 3.0 mi East 31.1 mph 46.0 mph 0.26 in Rain Rain
12:58 AM 66.9 °F 66.0 °F 97% 29.89 in 3.0 mi East 34.5 mph 46.0 mph 0.27 in Rain Rain
1:05 AM 66.2 °F 66.2 °F 100% 29.89 in 2.5 mi East 31.1 mph 43.7 mph 0.05 in Rain Heavy Rain
1:18 AM 68.0 °F 66.2 °F 94% 29.88 in 2.0 mi East 28.8 mph 35.7 mph 0.19 in Rain Heavy Rain
1:22 AM 68.0 °F 66.2 °F 94% 29.87 in 1.5 mi East 34.5 mph 41.4 mph 0.28 in Rain Heavy Rain
1:34 AM 68.0 °F 66.2 °F 94% 29.88 in 1.8 mi East 27.6 mph - 0.43 in Rain Heavy Rain
1:38 AM 68.0 °F 66.2 °F 94% 29.88 in 1.5 mi East 21.9 mph - 0.51 in Rain Heavy Rain
1:42 AM 68.0 °F 66.2 °F 94% 29.88 in 1.8 mi East 23.0 mph - 0.58 in Rain Heavy Rain
1:51 AM 68.0 °F 66.2 °F 94% 29.88 in 2.0 mi East 27.6 mph 34.5 mph 0.68 in Rain Rain
1:58 AM 66.9 °F 66.0 °F 97% 29.88 in 2.0 mi East 28.8 mph 38.0 mph 0.74 in Rain Rain
2:24 AM 66.2 °F 66.2 °F 100% 29.86 in 2.5 mi ENE 29.9 mph 39.1 mph 0.24 in Rain Heavy Rain
2:30 AM 66.2 °F 66.2 °F 100% 29.85 in 2.5 mi ENE 26.5 mph 39.1 mph 0.27 in Rain Rain
2:36 AM 66.2 °F 66.2 °F 100% 29.85 in 2.5 mi ENE 31.1 mph 36.8 mph 0.29 in Rain Rain
2:40 AM 66.2 °F 66.2 °F 100% 29.85 in 3.0 mi East 28.8 mph 36.8 mph 0.30 in Rain Rain
2:48 AM 68.0 °F 66.2 °F 94% 29.85 in 2.5 mi East 31.1 mph 34.5 mph 0.33 in Rain Rain
2:58 AM 66.9 °F 66.0 °F 97% 29.84 in 2.5 mi East 32.2 mph 41.4 mph 0.37 in Rain Rain
3:06 AM 66.2 °F 66.2 °F 100% 29.85 in 2.5 mi East 26.5 mph 40.3 mph 0.01 in Rain Rain
3:10 AM 66.2 °F 66.2 °F 100% 29.84 in 2.5 mi East 29.9 mph 35.7 mph 0.03 in Rain Rain
3:15 AM 66.2 °F 66.2 °F 100% 29.85 in 3.0 mi East 26.5 mph 32.2 mph 0.05 in Rain Rain
3:23 AM 66.2 °F 66.2 °F 100% 29.85 in 2.5 mi East 25.3 mph 33.4 mph 0.09 in Rain Rain
3:33 AM 68.0 °F 66.2 °F 94% 29.84 in 2.5 mi East 28.8 mph 34.5 mph 0.16 in Rain Heavy Rain
3:39 AM 68.0 °F 66.2 °F 94% 29.84 in 2.5 mi East 26.5 mph 34.5 mph 0.19 in Rain Rain
3:45 AM 68.0 °F 66.2 °F 94% 29.84 in 3.0 mi East 28.8 mph 34.5 mph 0.21 in Rain Rain
3:53 AM 68.0 °F 66.2 °F 94% 29.85 in 3.0 mi East 27.6 mph - 0.23 in Rain Rain
3:57 AM 68.0 °F 66.0 °F 93% 29.85 in 2.5 mi East 24.2 mph 32.2 mph 0.26 in Rain Heavy Rain
4:02 AM 68.0 °F 66.2 °F 94% 29.86 in 2.5 mi East 21.9 mph 32.2 mph 0.06 in Rain Rain
4:06 AM 68.0 °F 66.2 °F 94% 29.86 in 2.0 mi East 24.2 mph - 0.10 in Rain Rain
4:15 AM 68.0 °F 66.2 °F 94% 29.85 in 2.0 mi East 24.2 mph - 0.22 in Rain Heavy Rain
4:17 AM 68.0 °F 66.2 °F 94% 29.85 in 2.0 mi East 26.5 mph 32.2 mph 0.24 in Rain Heavy Rain
4:32 AM 68.0 °F 66.2 °F 94% 29.85 in 2.0 mi ENE 26.5 mph 33.4 mph 0.39 in Rain Heavy Rain
4:38 AM 68.0 °F 66.2 °F 94% 29.85 in 1.8 mi ENE 27.6 mph 33.4 mph 0.47 in Rain Heavy Rain
4:45 AM 68.0 °F 66.2 °F 94% 29.84 in 1.8 mi ENE 26.5 mph 33.4 mph 0.60 in Rain Heavy Rain
4:52 AM 68.0 °F 66.2 °F 94% 29.84 in 1.8 mi ENE 31.1 mph 36.8 mph 0.70 in Rain Heavy Rain
4:58 AM 68.0 °F 66.0 °F 93% 29.83 in 1.8 mi ENE 29.9 mph 36.8 mph 0.78 in Rain Heavy Rain
5:19 AM 66.2 °F 66.2 °F 100% 29.83 in 1.8 mi ESE 24.2 mph 32.2 mph 0.39 in Rain Rain
5:23 AM 66.2 °F 66.2 °F 100% 29.83 in 2.5 mi East 27.6 mph 35.7 mph 0.41 in Rain Rain
5:29 AM 68.0 °F 66.2 °F 94% 29.72 in 3.0 mi East 27.6 mph 35.7 mph 0.42 in Rain Light Rain
5:58 AM 68.0 °F 66.0 °F 93% 29.81 in 5.0 mi East 29.9 mph 36.8 mph 0.43 in Rain Light Rain
6:26 AM 68.0 °F 66.2 °F 94% 29.82 in 2.5 mi East 24.2 mph 35.7 mph 0.07 in Rain Rain
6:43 AM 68.0 °F 66.2 °F 94% 29.85 in 3.0 mi East 32.2 mph 36.8 mph 0.13 in Rain Light Rain
6:48 AM 68.0 °F 66.2 °F 94% 29.82 in 1.5 mi East 29.9 mph 36.8 mph 0.15 in Rain Rain
6:58 AM 68.0 °F 66.9 °F 96% 29.84 in 1.5 mi East 34.5 mph 40.3 mph 0.23 in Rain Heavy Rain
7:02 AM 68.0 °F 66.2 °F 94% 29.85 in 1.2 mi East 27.6 mph 40.3 mph 0.05 in Rain Heavy Rain
7:12 AM 68.0 °F 66.2 °F 94% 29.85 in 1.0 mi East 33.4 mph 43.7 mph 0.16 in Rain Heavy Rain
7:15 AM 68.0 °F 66.2 °F 94% 29.83 in 1.2 mi East 33.4 mph 43.7 mph 0.16 in Rain Rain
7:21 AM 68.0 °F 66.2 °F 94% 29.85 in 2.0 mi East 29.9 mph 38.0 mph 0.18 in Rain Rain
7:24 AM 66.2 °F 66.2 °F 100% 29.85 in 2.5 mi East 32.2 mph 40.3 mph 0.18 in Rain Light Rain
7:28 AM 66.2 °F 66.2 °F 100% 29.86 in 4.0 mi East 34.5 mph 40.3 mph 0.18 in Rain Light Rain
7:44 AM 68.0 °F 66.2 °F 94% 29.86 in 3.0 mi East 26.5 mph - 0.18 in Rain Light Rain
7:49 AM 68.0 °F 66.2 °F 94% 29.86 in 2.0 mi East 25.3 mph 33.4 mph 0.19 in Rain Light Rain
7:58 AM 68.0 °F 66.9 °F 96% 29.88 in 1.8 mi East 27.6 mph 36.8 mph 0.21 in Rain Light Rain
8:07 AM 68.0 °F 66.2 °F 94% 29.85 in 2.0 mi East 29.9 mph 39.1 mph 0.02 in Rain Light Rain
8:30 AM 68.0 °F 66.2 °F 94% 29.85 in 3.0 mi East 31.1 mph 35.7 mph 0.05 in Rain Light Rain
8:37 AM 68.0 °F 66.2 °F 94% 29.85 in 4.0 mi East 29.9 mph 36.8 mph 0.05 in Rain Light Rain
8:58 AM 68.0 °F 66.0 °F 93% 29.88 in 3.0 mi East 27.6 mph 34.5 mph 0.06 in Rain Light Rain
9:07 AM 68.0 °F 66.2 °F 94% 29.88 in 2.0 mi East 24.2 mph - 0.00 in Rain Light Rain
9:58 AM 68.0 °F 64.9 °F 90% 29.88 in 2.0 mi East 28.8 mph 35.7 mph 0.05 in Rain Light Rain
10:52 AM 68.0 °F 66.2 °F 94% 29.89 in 2.0 mi ENE 25.3 mph 33.4 mph 0.01 in Rain Light Rain
10:58 AM 68.0 °F 66.0 °F 93% 29.89 in 2.0 mi East 27.6 mph 35.7 mph 0.01 in Rain Light Rain
11:02 AM 69.8 °F 64.4 °F 83% 29.88 in 6.0 mi East 27.6 mph 35.7 mph 0.00 in Rain Light Rain
11:08 AM 68.0 °F 64.4 °F 88% 29.88 in 2.0 mi East 28.8 mph 36.8 mph 0.01 in Rain Light Rain
11:58 AM 69.1 °F 66.0 °F 90% 29.91 in 2.0 mi East 24.2 mph 36.8 mph 0.06 in Rain Light Rain
12:02 PM 69.8 °F 66.2 °F 88% 29.89 in 3.0 mi East 28.8 mph 34.5 mph 0.01 in Rain Light Rain
12:58 PM 68.0 °F 66.0 °F 93% 29.87 in 3.0 mi East 34.5 mph 42.6 mph 0.08 in Rain Light Rain
1:03 PM 68.0 °F 66.2 °F 94% 29.87 in 2.5 mi East 29.9 mph 42.6 mph 0.01 in Rain Light Rain
1:11 PM 68.0 °F 66.2 °F 94% 29.85 in 3.0 mi East 26.5 mph 35.7 mph 0.02 in Rain Light Rain
1:19 PM 69.8 °F 66.2 °F 88% 29.85 in 2.0 mi East 28.8 mph 35.7 mph 0.03 in Rain Light Rain
1:58 PM 69.1 °F 66.0 °F 90% 29.86 in 2.0 mi East 34.5 mph 39.1 mph 0.07 in Rain Light Rain
2:02 PM 69.8 °F 64.4 °F 83% 29.86 in 5.0 mi East 32.2 mph 39.1 mph 0.00 in Rain Light Rain
2:52 PM 69.8 °F 66.2 °F 88% 29.85 in 4.0 mi East 24.2 mph 33.4 mph 0.02 in Rain Light Rain
2:58 PM 69.1 °F 66.0 °F 90% 29.86 in 5.0 mi ENE 24.2 mph 34.5 mph 0.02 in Rain Light Rain
3:26 PM 69.8 °F 64.4 °F 83% 29.86 in 10.0 mi East 31.1 mph 36.8 mph 0.01 in Rain Light Rain
3:58 PM 69.1 °F 63.0 °F 81% 29.85 in 3.0 mi ENE 27.6 mph 36.8 mph 0.01 in Rain Light Rain
4:28 PM 68.0 °F 64.4 °F 88% 29.83 in 3.0 mi ENE 31.1 mph 40.3 mph 0.01 in Rain Light Rain
4:37 PM 68.0 °F 64.4 °F 88% 29.84 in 6.0 mi ENE 28.8 mph 38.0 mph 0.01 in Rain Light Rain
4:52 PM 68.0 °F 64.4 °F 88% 29.83 in 7.0 mi ENE 31.1 mph 36.8 mph 0.01 in   Overcast
4:58 PM 68.0 °F 64.0 °F 87% 29.84 in 7.0 mi ENE 31.1 mph 36.8 mph 0.01 in   Overcast
5:16 PM 69.8 °F 62.6 °F 78% 29.84 in 3.0 mi ENE 35.7 mph 42.6 mph N/A   Haze
5:58 PM 70.0 °F 63.0 °F 78% 29.84 in 3.0 mi ENE 33.4 mph 40.3 mph N/A   Haze
6:24 PM 69.8 °F 62.6 °F 78% 29.84 in 10.0 mi ENE 35.7 mph 39.1 mph N/A   Overcast
6:31 PM 69.8 °F 64.4 °F 83% 29.85 in 10.0 mi ENE 31.1 mph 39.1 mph N/A   Overcast
6:36 PM 69.8 °F 64.4 °F 83% 29.85 in 10.0 mi ENE 28.8 mph 35.7 mph N/A   Overcast
6:40 PM 69.8 °F 62.6 °F 78% 29.86 in 10.0 mi ENE 31.1 mph 38.0 mph N/A   Overcast
6:58 PM 70.0 °F 63.0 °F 78% 29.83 in 3.0 mi ENE 28.8 mph 35.7 mph 0.00 in Rain Light Rain
7:11 PM 69.8 °F 62.6 °F 78% 29.85 in 10.0 mi ENE 24.2 mph 35.7 mph 0.00 in Rain Light Rain
7:58 PM 69.1 °F 64.9 °F 87% 29.83 in 10.0 mi ENE 25.3 mph 31.1 mph 0.00 in Rain Light Rain
8:17 PM 69.8 °F 64.4 °F 83% 29.84 in 9.0 mi East 31.1 mph 39.1 mph 0.00 in Rain Light Rain
8:26 PM 69.8 °F 64.4 °F 83% 29.85 in 10.0 mi ENE 25.3 mph 35.7 mph 0.00 in Rain Light Rain
8:58 PM 69.1 °F 63.0 °F 81% 29.84 in 10.0 mi ENE 25.3 mph 33.4 mph 0.00 in   Overcast
9:58 PM 69.1 °F 63.0 °F 81% 29.86 in 9.0 mi East 29.9 mph 38.0 mph 0.00 in   Overcast
10:46 PM 69.8 °F 64.4 °F 83% 29.87 in 8.0 mi East 25.3 mph 32.2 mph 0.00 in Rain Light Rain
10:53 PM 69.8 °F 62.6 °F 78% 29.84 in 10.0 mi East 28.8 mph 36.8 mph 0.00 in Rain Light Rain
10:58 PM 70.0 °F 63.0 °F 78% 29.83 in 10.0 mi East 29.9 mph 36.8 mph 0.00 in   Overcast
11:37 PM 69.8 °F 64.4 °F 83% 29.86 in 10.0 mi ENE 25.3 mph 31.1 mph N/A   Overcast
11:58 PM 68.0 °F 64.0 °F 87% 29.83 in 5.0 mi ENE 27.6 mph 38.0 mph 0.00 in Rain Light Rain